period_start,C,m1,H,J0,J1,J2,J3,J4,J5,JA,JB,JC,JD,JJ,JK,JN,#
2016-05-17 00:01:50,0.04,1.61,0.00,23.15,27.50,30.46,14.45,49.44,1009.29,2035.00,2867.48,2722.40,3064.08,599.82,591.29,45.67,0000 0000 0000 0000 000000
2016-05-17 00:06:51,0.01,1.61,0.00,23.16,27.50,30.49,14.36,49.25,1009.29,2035.00,2867.01,2722.02,3063.97,599.74,591.06,45.72,0000 0000 0000 0000 000000
2016-05-17 00:11:53,0.02,1.61,0.00,23.17,27.52,30.48,14.39,49.26,1009.29,2035.00,2866.66,2721.98,3063.47,599.93,591.37,45.77,0000 0000 0000 0000 000000
2016-05-17 00:16:54,0.03,1.61,0.00,23.18,27.52,30.47,14.47,49.43,1009.30,2034.99,2866.03,2721.57,3063.01,600.08,591.47,45.82,0000 0000 0000 0000 000000
2016-05-17 00:21:55,0.02,1.61,0.00,23.19,27.53,30.49,14.41,49.34,1009.31,2034.98,2865.76,2721.03,3062.65,600.03,591.33,45.87,0000 0000 0000 0000 000000
2016-05-17 00:26:56,0.01,1.61,0.00,23.20,27.55,30.50,14.40,49.24,1009.31,2034.98,2865.06,2720.99,3062.02,599.94,591.26,45.92,0000 0000 0000 0000 000000
2016-05-17 00:31:57,0.03,1.61,0.00,23.21,27.55,30.50,14.47,49.42,1009.30,2034.97,2864.71,2720.64,3061.76,600.17,591.45,45.97,0000 0000 0000 0000 000000
2016-05-17 00:36:59,0.03,1.62,0.00,23.21,27.56,30.52,14.49,49.46,1009.31,2034.97,2864.04,2720.04,3061.06,600.20,591.58,46.02,0000 0000 0000 0000 000000
2016-05-17 00:42:00,0.01,1.62,0.00,23.23,27.57,30.53,14.45,49.31,1009.35,2034.96,2863.78,2720.00,3060.98,600.13,591.36,46.07,0000 0000 0000 0000 000000
2016-05-17 00:47:01,0.02,1.62,0.00,23.24,27.57,30.54,14.42,49.30,1009.57,2034.96,2863.05,2719.90,3060.49,600.20,591.51,46.12,0000 0000 0000 0000 000000
2016-05-17 00:52:03,0.03,1.62,0.00,23.26,27.59,30.53,14.48,49.45,1009.40,2034.95,2862.93,2719.13,3060.01,600.33,591.49,46.17,0000 0000 0000 0000 000000
2016-05-17 00:57:04,0.02,1.62,0.00,23.27,27.60,30.55,14.42,49.52,1009.37,2034.91,2862.14,2718.99,3059.73,600.03,591.28,46.22,0000 0000 0000 0000 000000
2016-05-17 01:02:05,0.01,1.62,0.00,23.27,27.60,30.57,14.46,49.42,1009.50,2034.80,2861.98,2718.93,3059.05,599.96,591.27,46.27,0000 0000 0000 0000 000000
2016-05-17 01:07:06,0.01,1.62,0.00,23.29,27.62,30.57,14.44,49.25,1009.68,2034.61,2861.32,2718.24,3058.91,599.88,591.21,46.32,0000 0000 0000 0000 000000
2016-05-17 01:12:07,0.01,1.62,0.00,23.30,27.62,30.61,14.41,49.33,1009.77,2034.36,2860.99,2718.00,3058.16,599.90,591.35,46.37,0000 0000 0000 0000 000000
2016-05-17 01:17:09,0.00,1.62,0.00,23.32,27.64,30.59,14.53,49.45,1009.78,2034.15,2860.25,2717.82,3057.93,600.26,591.65,46.43,0000 0000 0000 0000 000000
2016-05-17 01:22:10,0.03,1.62,0.00,23.32,27.65,30.61,14.39,49.35,1009.78,2034.05,2859.99,2717.09,3057.17,600.03,591.50,46.48,0000 0000 0000 0000 000000
2016-05-17 01:27:11,0.01,1.63,0.00,23.33,27.65,30.60,14.48,49.46,1009.78,2034.01,2859.29,2717.00,3056.97,599.96,591.37,46.53,0000 0000 0000 0000 000000
2016-05-17 01:32:13,0.03,1.63,0.00,23.34,27.67,30.62,14.46,49.53,1009.78,2034.02,2858.99,2716.77,3056.32,599.54,590.94,46.58,0000 0000 0000 0000 000000
2016-05-17 01:37:14,0.03,1.63,0.00,23.34,27.67,30.64,14.43,49.48,1009.78,2034.01,2858.40,2716.11,3056.00,600.26,591.60,46.63,0000 0000 0000 0000 000000
2016-05-17 01:42:16,0.01,1.63,0.00,23.35,27.69,30.63,14.45,49.52,1009.79,2034.00,2857.97,2715.99,3055.63,600.02,591.34,46.68,0000 0000 0000 0000 000000
2016-05-17 01:47:17,0.03,1.63,0.00,23.37,27.70,30.66,14.48,49.45,1009.82,2034.00,2857.34,2715.83,3055.02,600.12,591.57,46.73,0000 0000 0000 0000 000000
2016-05-17 01:52:18,0.03,1.63,0.00,23.38,27.70,30.68,14.49,49.57,1009.83,2034.00,2856.99,2715.09,3054.77,600.31,591.58,46.78,0000 0000 0000 0000 000000
2016-05-17 01:57:19,0.03,1.63,0.00,23.39,27.72,30.70,14.47,49.52,1009.84,2034.00,2856.35,2715.00,3054.05,600.26,591.54,46.83,0000 0000 0000 0000 000000
2016-05-17 02:02:20,0.01,1.64,0.00,23.40,27.72,30.69,14.41,49.58,1009.86,2034.00,2855.99,2714.73,3053.86,599.65,590.97,46.88,0000 0000 0000 0000 000000
2016-05-17 02:07:21,0.04,1.64,0.00,23.42,27.74,30.69,14.42,49.42,1010.13,2033.99,2855.31,2714.06,3053.09,599.87,591.35,46.93,0000 0000 0000 0000 000000
2016-05-17 02:12:23,0.00,1.64,0.00,23.42,27.75,30.69,14.42,49.56,1010.26,2033.99,2855.00,2714.00,3052.99,600.02,591.69,46.98,0000 0000 0000 0000 000000
2016-05-17 02:17:24,0.02,1.64,0.00,23.44,27.75,30.72,14.41,49.48,1010.26,2033.99,2854.73,2713.95,3052.45,600.17,591.61,47.03,0000 0000 0000 0000 000000
2016-05-17 02:22:26,0.04,1.64,0.00,23.45,27.77,30.72,14.40,49.33,1010.27,2033.98,2854.07,2713.28,3052.01,599.70,591.12,47.08,0000 0000 0000 0000 000000
2016-05-17 02:27:27,0.01,1.64,0.00,23.46,27.77,30.73,14.47,49.62,1010.27,2033.98,2853.99,2713.01,3051.89,600.12,591.42,47.13,0000 0000 0000 0000 000000
2016-05-17 02:32:28,0.03,1.64,0.00,23.47,27.79,30.74,14.47,49.78,1010.27,2033.99,2853.38,2712.99,3051.20,599.67,591.11,47.18,0000 0000 0000 0000 000000
2016-05-17 02:37:29,0.02,1.64,0.00,23.47,27.80,30.76,14.30,49.47,1010.30,2033.94,2852.97,2712.54,3050.97,599.71,591.10,47.23,0000 0000 0000 0000 000000
2016-05-17 02:42:30,0.03,1.65,0.00,23.49,27.80,30.77,14.38,49.53,1010.39,2033.90,2852.34,2712.02,3050.30,599.87,591.27,47.28,0000 0000 0000 0000 000000
2016-05-17 02:47:32,0.00,1.65,0.00,23.49,27.82,30.79,14.45,49.48,1010.61,2033.80,2851.99,2711.99,3049.99,599.82,591.38,47.33,0000 0000 0000 0000 000000
2016-05-17 02:52:33,0.04,1.65,0.00,23.50,27.82,30.79,14.40,49.52,1010.76,2033.82,2851.41,2711.68,3049.72,599.84,591.48,47.39,0000 0000 0000 0000 000000
2016-05-17 02:57:34,0.01,1.65,0.00,23.50,27.84,30.79,14.39,49.67,1010.76,2033.66,2851.01,2711.06,3049.03,600.10,591.69,47.44,0000 0000 0000 0000 000000
2016-05-17 03:02:35,0.01,1.65,0.00,23.52,27.85,30.80,14.48,49.54,1010.77,2033.51,2850.60,2710.99,3048.94,600.02,591.56,47.49,0000 0000 0000 0000 000000
2016-05-17 03:07:36,0.01,1.65,0.00,23.53,27.85,30.81,14.44,49.43,1010.84,2033.29,2850.04,2710.84,3048.26,600.02,591.77,47.54,0000 0000 0000 0000 000000
2016-05-17 03:12:38,0.02,1.65,0.00,23.52,27.87,30.82,14.46,49.48,1010.88,2033.22,2849.90,2710.18,3048.00,599.62,591.25,47.59,0000 0000 0000 0000 000000
2016-05-17 03:17:39,0.01,1.65,0.00,23.54,27.87,30.83,14.45,49.51,1011.09,2033.11,2849.15,2710.00,3047.72,600.00,591.68,47.64,0000 0000 0000 0000 000000
2016-05-17 03:22:41,0.00,1.65,0.00,23.55,27.89,30.85,14.47,49.60,1011.19,2033.06,2849.00,2709.98,3047.08,600.00,591.68,47.69,0000 0000 0000 0000 000000
2016-05-17 03:27:42,0.03,1.65,0.00,23.57,27.90,30.86,14.47,49.67,1011.14,2033.01,2848.73,2709.53,3047.00,599.83,591.56,47.74,0000 0000 0000 0000 000000
2016-05-17 03:32:43,0.01,1.65,0.00,23.57,27.90,30.86,14.48,49.63,1011.15,2033.00,2848.10,2709.06,3046.90,600.58,592.25,47.79,0000 0000 0000 0000 000000
2016-05-17 03:37:44,0.01,1.65,0.00,23.59,27.92,30.87,14.47,49.63,1011.16,2033.01,2848.01,2709.00,3046.34,600.05,591.71,47.84,0000 0000 0000 0000 000000
2016-05-17 03:42:46,0.00,1.66,0.00,23.60,27.92,30.86,14.43,49.47,1011.22,2033.00,2847.98,2709.00,3046.02,599.91,591.49,47.89,0000 0000 0000 0000 000000
2016-05-17 03:47:47,0.02,1.66,0.00,23.62,27.94,30.87,14.48,49.47,1011.24,2033.00,2847.34,2708.87,3045.98,600.61,592.27,47.94,0000 0000 0000 0000 000000
2016-05-17 03:52:48,0.02,1.66,0.00,23.63,27.95,30.88,14.42,49.44,1011.26,2033.01,2847.00,2708.41,3045.74,599.29,590.94,47.99,0000 0000 0000 0000 000000
2016-05-17 03:57:49,0.01,1.66,0.00,23.65,27.96,30.91,14.45,49.67,1011.26,2033.00,2846.99,2708.03,3045.09,599.92,591.51,48.04,0000 0000 0000 0000 000000
2016-05-17 04:02:51,0.01,1.66,0.00,23.67,27.97,30.91,14.53,49.63,1011.25,2033.00,2846.71,2708.00,3045.00,600.43,592.01,48.09,0000 0000 0000 0000 000000
2016-05-17 04:07:52,0.01,1.66,0.00,23.67,27.98,30.93,14.48,49.60,1011.26,2033.00,2846.09,2707.99,3044.95,600.02,591.53,48.14,0000 0000 0000 0000 000000
2016-05-17 04:12:53,0.01,1.66,0.00,23.69,28.00,30.93,14.43,49.71,1011.36,2033.00,2846.00,2707.91,3044.64,600.00,591.52,48.19,0000 0000 0000 0000 000000
2016-05-17 04:17:54,0.03,1.66,0.00,23.72,28.00,30.95,14.42,49.40,1011.60,2033.00,2845.85,2707.25,3044.04,599.99,591.66,48.24,0000 0000 0000 0000 000000
2016-05-17 04:22:56,0.01,1.66,0.00,23.71,28.02,30.95,14.38,49.40,1011.72,2033.00,2845.11,2707.01,3044.00,599.99,591.76,48.30,0000 0000 0000 0000 000000
2016-05-17 04:27:57,0.00,1.66,0.00,23.72,28.02,30.97,14.43,49.28,1011.74,2032.98,2845.00,2707.00,3043.95,599.99,591.72,48.35,0000 0000 0000 0000 000000
2016-05-17 04:32:58,0.01,1.66,0.00,23.73,28.04,30.99,14.50,49.67,1011.74,2032.97,2844.99,2706.99,3043.43,600.08,591.82,48.40,0000 0000 0000 0000 000000
2016-05-17 04:37:59,0.01,1.66,0.00,23.75,28.05,30.98,14.44,49.58,1011.74,2032.97,2844.77,2706.85,3043.01,599.93,591.61,48.45,0000 0000 0000 0000 000000
2016-05-17 04:43:00,0.03,1.67,0.00,23.76,28.06,31.02,14.41,49.42,1011.75,2032.94,2844.16,2706.30,3043.00,599.75,591.42,48.50,0000 0000 0000 0000 000000
2016-05-17 04:48:02,-0.00,1.67,0.00,23.77,28.07,31.01,14.42,49.52,1011.77,2032.92,2844.00,2706.02,3042.92,599.86,591.52,48.55,0000 0000 0000 0000 000000
2016-05-17 04:53:03,0.01,1.67,0.00,23.79,28.09,31.03,14.46,49.73,1011.78,2032.82,2843.97,2706.00,3042.44,600.16,591.78,48.60,0000 0000 0000 0000 000000
2016-05-17 04:58:05,-0.01,1.67,0.00,23.82,28.10,31.02,14.47,49.51,1011.88,2032.62,2843.60,2705.99,3042.02,600.05,591.66,48.65,0000 0000 0000 0000 000000
2016-05-17 05:03:06,-0.02,1.67,0.00,23.83,28.11,31.06,14.44,49.51,1012.07,2032.35,2843.03,2705.84,3041.99,600.12,591.75,48.70,0000 0000 0000 0000 000000
2016-05-17 05:08:07,0.02,1.67,0.00,23.85,28.12,31.08,14.50,49.64,1012.19,2032.16,2843.00,2705.21,3041.71,600.17,591.87,48.75,0000 0000 0000 0000 000000
2016-05-17 05:13:08,0.00,1.67,0.00,23.85,28.14,31.07,14.43,49.59,1012.22,2032.08,2842.86,2705.01,3041.09,600.05,591.79,48.80,0000 0000 0000 0000 000000
2016-05-17 05:18:09,0.01,1.67,0.00,23.86,28.15,31.09,14.51,49.66,1012.22,2032.04,2842.35,2705.00,3041.01,600.35,592.11,48.85,0000 0000 0000 0000 000000
2016-05-17 05:23:11,0.00,1.67,0.00,23.88,28.16,31.10,14.47,49.49,1012.21,2032.01,2842.03,2704.99,3041.00,600.18,591.85,48.90,0000 0000 0000 0000 000000
2016-05-17 05:28:12,0.01,1.67,0.00,23.88,28.17,31.10,14.41,49.41,1012.22,2032.01,2841.99,2704.76,3040.80,600.08,591.82,48.95,0000 0000 0000 0000 000000
2016-05-17 05:33:13,0.03,1.67,0.00,23.89,28.17,31.12,14.48,49.39,1012.22,2032.00,2841.74,2704.16,3040.14,600.01,591.72,49.00,0000 0000 0000 0000 000000
2016-05-17 05:38:14,0.01,1.67,0.00,23.90,28.19,31.14,14.56,49.68,1012.23,2032.00,2841.09,2704.01,3040.01,600.60,592.24,49.05,0000 0000 0000 0000 000000
2016-05-17 05:43:16,0.00,1.67,0.00,23.92,28.20,31.15,14.42,49.37,1012.24,2032.00,2841.00,2703.99,3039.99,600.19,591.76,49.10,0000 0000 0000 0000 000000
2016-05-17 05:48:17,0.01,1.67,0.00,23.95,28.21,31.15,14.51,49.72,1012.24,2032.00,2840.85,2703.95,3039.72,600.39,591.98,49.15,0000 0000 0000 0000 000000
2016-05-17 05:53:18,0.04,1.67,0.00,23.96,28.22,31.19,14.42,49.38,1012.40,2032.00,2840.14,2703.35,3039.07,599.71,591.31,49.20,0000 0000 0000 0000 000000
2016-05-17 05:58:19,0.00,1.67,0.00,23.96,28.23,31.19,14.50,49.42,1012.51,2032.00,2840.00,2703.02,3038.98,600.55,592.42,49.26,0000 0000 0000 0000 000000
2016-05-17 06:03:21,0.02,1.68,0.00,23.98,28.25,31.19,14.41,49.39,1012.68,2031.99,2839.63,2703.00,3038.45,599.84,591.60,49.31,0000 0000 0000 0000 000000
2016-05-17 06:08:22,0.01,1.68,0.00,23.99,28.25,31.21,14.44,49.53,1012.71,2031.99,2839.04,2702.90,3038.01,600.40,591.94,49.36,0000 0000 0000 0000 000000
2016-05-17 06:13:23,0.01,1.68,0.00,24.00,28.27,31.22,14.40,49.64,1012.71,2031.99,2839.00,2702.54,3038.00,600.01,591.76,49.41,0000 0000 0000 0000 000000
2016-05-17 06:18:24,0.02,1.68,0.00,24.00,28.28,31.23,14.33,49.31,1012.71,2031.97,2838.69,2702.04,3037.84,599.49,591.26,49.46,0000 0000 0000 0000 000000
2016-05-17 06:23:26,0.02,1.68,0.00,24.00,28.30,31.24,14.46,49.49,1012.72,2031.96,2838.06,2702.00,3037.13,600.09,591.77,49.51,0000 0000 0000 0000 000000
2016-05-17 06:28:27,-0.01,1.68,0.00,24.02,28.30,31.25,14.40,49.20,1012.73,2031.85,2837.99,2701.95,3037.00,600.33,592.08,49.56,0000 0000 0000 0000 000000
2016-05-17 06:33:28,0.02,1.68,0.00,24.03,28.32,31.26,14.43,49.24,1012.72,2031.74,2837.56,2701.37,3036.83,599.58,591.28,49.61,0000 0000 0000 0000 000000
2016-05-17 06:38:30,-0.00,1.68,0.00,24.04,28.32,31.28,14.45,49.29,1012.73,2031.50,2837.03,2701.02,3036.11,600.04,591.86,49.66,0000 0000 0000 0000 000000
2016-05-17 06:43:31,-0.00,1.68,0.00,24.05,28.34,31.30,14.40,49.23,1012.83,2031.33,2836.95,2701.00,3036.00,599.73,591.46,49.71,0000 0000 0000 0000 000000
2016-05-17 06:48:33,0.01,1.68,0.00,24.05,28.35,31.30,14.42,49.43,1012.81,2031.20,2836.38,2700.84,3035.78,599.86,591.62,49.76,0000 0000 0000 0000 000000
2016-05-17 06:53:34,0.03,1.68,0.00,24.05,28.36,31.32,14.46,49.28,1013.01,2031.05,2836.00,2700.11,3035.06,599.65,591.54,49.81,0000 0000 0000 0000 000000
2016-05-17 06:58:35,-0.00,1.68,0.00,24.05,28.37,31.31,14.44,49.43,1013.19,2031.02,2835.86,2700.00,3034.99,599.90,591.87,49.86,0000 0000 0000 0000 000000
2016-05-17 07:03:37,0.02,1.68,0.00,24.06,28.37,31.33,14.45,49.39,1013.20,2031.00,2835.21,2699.98,3034.68,600.01,591.94,49.91,0000 0000 0000 0000 000000
2016-05-17 07:08:38,0.02,1.68,0.00,24.07,28.39,31.34,14.52,49.39,1013.20,2031.00,2835.00,2699.60,3034.04,600.33,592.17,49.96,0000 0000 0000 0000 000000
2016-05-17 07:13:39,0.01,1.69,0.00,24.06,28.40,31.36,14.52,49.40,1013.20,2031.00,2834.70,2699.08,3033.98,600.68,592.58,50.01,0000 0000 0000 0000 000000
2016-05-17 07:18:41,0.03,1.69,0.00,24.06,28.40,31.37,14.43,49.55,1013.21,2031.00,2834.04,2698.99,3033.29,600.15,592.13,50.06,0000 0000 0000 0000 000000
2016-05-17 07:23:42,0.02,1.69,0.00,24.06,28.42,31.36,14.44,49.48,1013.28,2030.99,2833.82,2698.72,3033.00,599.87,591.84,50.11,0000 0000 0000 0000 000000
2016-05-17 07:28:43,0.03,1.69,0.00,24.05,28.42,31.39,14.45,49.33,1013.29,2030.99,2833.12,2698.10,3032.81,600.04,592.09,50.16,0000 0000 0000 0000 000000
2016-05-17 07:33:44,0.01,1.69,0.00,24.05,28.42,31.40,14.41,49.23,1013.50,2030.99,2832.97,2698.00,3032.05,599.83,592.01,50.22,0000 0000 0000 0000 000000
2016-05-17 07:38:46,0.03,1.69,0.00,24.05,28.42,31.39,14.49,49.35,1013.67,2030.99,2832.21,2697.73,3031.95,600.06,592.34,50.27,0000 0000 0000 0000 000000
2016-05-17 07:43:47,0.03,1.69,0.00,24.04,28.44,31.42,14.47,49.24,1013.69,2030.97,2832.00,2697.09,3031.26,599.92,592.22,50.32,0000 0000 0000 0000 000000
2016-05-17 07:48:48,0.01,1.69,0.00,24.04,28.45,31.41,14.50,49.17,1013.69,2030.98,2831.71,2697.00,3031.00,600.17,592.42,50.37,0000 0000 0000 0000 000000
2016-05-17 07:53:50,0.02,1.70,0.00,24.02,28.45,31.42,14.41,49.25,1013.69,2030.98,2831.04,2696.96,3030.82,599.88,592.16,50.42,0000 0000 0000 0000 000000
2016-05-17 07:58:51,0.03,1.70,0.00,24.01,28.45,31.42,14.49,49.38,1013.69,2030.97,2830.98,2696.48,3030.13,600.30,592.56,50.47,0000 0000 0000 0000 000000
2016-05-17 08:03:52,0.02,1.70,0.00,24.01,28.45,31.41,14.49,49.37,1013.82,2030.97,2830.32,2696.06,3030.00,600.01,592.54,50.52,0000 0000 0000 0000 000000
2016-05-17 08:08:53,0.01,1.70,0.00,24.00,28.45,31.41,14.52,49.53,1014.09,2030.98,2830.01,2696.00,3029.89,600.31,592.86,50.57,0000 0000 0000 0000 000000
2016-05-17 08:13:55,0.01,1.70,0.00,23.98,28.45,31.43,14.41,49.30,1014.17,2030.97,2829.94,2695.96,3029.22,599.97,592.61,50.62,0000 0000 0000 0000 000000
2016-05-17 08:18:56,0.02,1.70,0.00,23.98,28.45,31.43,14.53,49.52,1014.18,2030.97,2829.47,2695.77,3029.01,599.87,592.50,50.67,0000 0000 0000 0000 000000
2016-05-17 08:23:57,0.01,1.70,0.00,23.96,28.45,31.42,14.49,49.44,1014.20,2030.95,2829.03,2695.20,3028.98,600.31,592.72,50.72,0000 0000 0000 0000 000000
2016-05-17 08:28:58,0.01,1.70,0.00,23.94,28.45,31.45,14.45,48.97,1014.20,2030.95,2828.97,2695.01,3028.65,599.67,592.41,50.77,0000 0000 0000 0000 000000
2016-05-17 08:34:00,0.00,1.70,0.00,23.93,28.45,31.41,14.44,49.18,1014.30,2030.89,2828.60,2695.00,3028.09,599.64,592.45,50.82,0000 0000 0000 0000 000000
2016-05-17 08:39:01,0.02,1.70,0.00,23.92,28.45,31.41,14.46,49.49,1014.28,2030.94,2828.07,2694.98,3028.00,599.68,592.53,50.87,0000 0000 0000 0000 000000
2016-05-17 08:44:02,0.00,1.70,0.00,23.91,28.45,31.40,14.51,49.46,1014.45,2030.92,2828.00,2694.74,3027.99,599.99,592.80,50.92,0000 0000 0000 0000 000000
2016-05-17 08:49:03,0.02,1.71,0.00,23.90,28.45,31.42,14.47,49.13,1014.43,2030.87,2827.93,2694.16,3027.76,599.88,592.83,50.97,0000 0000 0000 0000 000000
2016-05-17 08:54:05,0.03,1.71,0.00,23.89,28.45,31.40,14.48,49.32,1014.25,2030.94,2827.34,2694.02,3027.20,600.01,592.88,51.02,0000 0000 0000 0000 000000
2016-05-17 08:59:06,0.01,1.71,0.00,23.87,28.45,31.39,14.50,49.33,1014.19,2030.96,2827.02,2694.00,3027.01,600.28,593.14,51.07,0000 0000 0000 0000 000000
2016-05-17 09:04:07,0.00,1.71,0.00,23.85,28.43,31.39,14.46,49.33,1014.24,2030.96,2826.99,2693.99,3027.00,599.90,592.80,51.12,0000 0000 0000 0000 000000
2016-05-17 09:09:08,0.00,1.71,0.00,23.84,28.42,31.39,14.47,49.38,1014.25,2030.97,2826.94,2693.98,3026.97,599.58,592.55,51.17,0000 0000 0000 0000 000000
2016-05-17 09:14:10,0.03,1.71,0.00,23.82,28.42,31.38,14.53,49.37,1014.44,2030.94,2826.25,2693.75,3026.63,600.21,593.32,51.22,0000 0000 0000 0000 000000
2016-05-17 09:19:11,0.03,1.71,0.00,23.79,28.42,31.39,14.49,49.37,1014.63,2030.98,2826.01,2693.36,3026.13,599.63,593.00,51.28,0000 0000 0000 0000 000000
2016-05-17 09:24:13,0.00,1.71,0.00,23.76,28.40,31.38,14.40,49.38,1014.64,2030.99,2826.00,2693.14,3026.02,599.54,592.88,51.33,0000 0000 0000 0000 000000
2016-05-17 09:29:14,0.00,1.71,0.00,23.73,28.40,31.35,14.49,49.63,1014.66,2030.99,2826.00,2693.04,3026.00,600.01,593.49,51.38,0000 0000 0000 0000 000000
2016-05-17 09:34:15,0.00,1.71,0.00,23.72,28.39,31.35,14.58,49.57,1014.66,2030.99,2825.90,2693.02,3026.00,600.07,593.74,51.43,0000 0000 0000 0000 000000
2016-05-17 09:39:16,0.01,1.71,0.00,23.70,28.37,31.35,14.51,49.63,1014.67,2030.99,2825.40,2693.00,3025.99,600.30,593.83,51.48,0000 0000 0000 0000 000000
2016-05-17 09:44:18,0.00,1.71,0.00,23.66,28.37,31.32,14.50,49.60,1014.68,2030.99,2825.16,2693.00,3025.98,600.24,593.75,51.53,0000 0000 0000 0000 000000
2016-05-17 09:49:19,0.00,1.71,0.00,23.64,28.35,31.33,14.54,49.55,1014.69,2031.00,2825.04,2693.00,3025.96,600.09,593.73,51.58,0000 0000 0000 0000 000000
2016-05-17 09:54:21,0.00,1.71,0.00,23.61,28.34,31.31,14.42,49.49,1014.73,2031.00,2825.01,2693.00,3025.90,599.79,593.35,51.63,0000 0000 0000 0000 000000
2016-05-17 09:59:22,0.01,1.71,0.00,23.59,28.32,31.29,14.45,49.45,1014.95,2031.01,2825.00,2693.00,3025.75,599.83,593.68,51.68,0000 0000 0000 0000 000000
2016-05-17 10:04:24,0.01,1.71,0.00,23.57,28.31,31.31,14.49,49.61,1015.05,2031.02,2824.99,2692.99,3025.23,599.92,593.92,51.73,0000 0000 0000 0000 000000
2016-05-17 10:09:25,0.00,1.71,0.00,23.53,28.30,31.25,14.45,49.50,1015.14,2031.06,2824.98,2692.98,3025.15,599.93,594.03,51.78,0000 0000 0000 0000 000000
2016-05-17 10:14:26,0.02,1.71,0.00,23.51,28.28,31.24,14.48,49.57,1015.15,2031.14,2824.84,2692.98,3025.10,599.92,594.03,51.83,0000 0000 0000 0000 000000
2016-05-17 10:19:28,0.01,1.72,0.00,23.49,28.26,31.23,14.44,49.57,1015.15,2031.25,2824.36,2692.97,3025.03,599.69,593.93,51.88,0000 0000 0000 0000 000000
2016-05-17 10:24:29,0.03,1.72,0.00,23.48,28.25,31.21,14.53,49.58,1015.29,2031.50,2824.14,2692.93,3025.00,600.02,594.31,51.93,0000 0000 0000 0000 000000
2016-05-17 10:29:30,0.03,1.72,0.00,23.49,28.23,31.20,14.54,49.48,1015.61,2031.63,2824.01,2692.88,3025.00,600.23,594.51,51.98,0000 0000 0000 0000 000000
2016-05-17 10:34:31,0.01,1.72,0.00,23.52,28.22,31.17,14.49,49.56,1015.61,2031.84,2824.00,2692.64,3025.00,599.88,594.26,52.03,0000 0000 0000 0000 000000
2016-05-17 10:39:32,0.01,1.72,0.00,23.54,28.20,31.14,14.53,49.52,1015.64,2031.90,2824.00,2692.37,3025.00,599.82,594.30,52.08,0000 0000 0000 0000 000000
2016-05-17 10:44:34,0.01,1.72,0.00,23.55,28.20,31.13,14.53,49.45,1015.84,2031.94,2824.00,2692.22,3024.98,599.94,594.41,52.13,0000 0000 0000 0000 000000
2016-05-17 10:49:35,0.00,1.72,0.00,23.57,28.17,31.14,14.54,49.47,1016.12,2031.96,2823.96,2692.10,3024.98,599.75,594.42,52.19,0000 0000 0000 0000 000000
2016-05-17 10:54:36,0.00,1.72,0.00,23.55,28.17,31.13,14.56,49.48,1016.13,2031.98,2823.91,2692.08,3024.94,600.31,594.93,52.24,0000 0000 0000 0000 000000
2016-05-17 10:59:38,0.01,1.72,0.00,23.55,28.16,31.11,14.44,49.24,1016.13,2031.98,2823.64,2692.02,3024.85,599.46,594.11,52.29,0000 0000 0000 0000 000000
2016-05-17 11:04:39,0.00,1.72,0.00,23.54,28.15,31.10,14.62,49.77,1016.13,2031.99,2823.38,2692.03,3024.77,600.07,594.72,52.34,0000 0000 0000 0000 000000
2016-05-17 11:09:40,0.01,1.72,0.00,23.54,28.13,31.07,14.49,49.17,1016.14,2031.98,2823.07,2692.01,3024.42,599.69,594.36,52.39,0000 0000 0000 0000 000000
2016-05-17 11:14:41,0.01,1.72,0.00,23.50,28.12,31.07,14.52,49.34,1016.15,2031.99,2823.00,2692.00,3024.12,599.94,594.79,52.44,0000 0000 0000 0000 000000
2016-05-17 11:19:43,0.00,1.72,0.00,23.47,28.11,31.09,14.48,49.39,1016.18,2031.99,2822.99,2692.00,3024.02,600.09,595.03,52.49,0000 0000 0000 0000 000000
2016-05-17 11:24:44,0.00,1.72,0.00,23.44,28.10,31.04,14.51,49.47,1016.17,2031.99,2822.98,2692.00,3024.01,600.02,594.75,52.54,0000 0000 0000 0000 000000
2016-05-17 11:29:45,0.00,1.72,0.00,23.40,28.07,31.03,14.54,49.48,1016.17,2031.99,2822.94,2692.00,3024.00,599.96,594.97,52.59,0000 0000 0000 0000 000000
2016-05-17 11:34:46,0.00,1.72,0.00,23.39,28.06,31.03,14.46,49.19,1016.37,2031.99,2822.71,2692.00,3024.00,600.06,595.20,52.64,0000 0000 0000 0000 000000
2016-05-17 11:39:48,0.01,1.72,0.00,23.37,28.05,31.01,14.49,49.53,1016.56,2031.99,2822.22,2691.99,3024.00,599.99,595.13,52.69,0000 0000 0000 0000 000000
2016-05-17 11:44:49,0.00,1.72,0.00,23.36,28.03,30.99,14.55,49.12,1016.61,2031.99,2822.02,2691.99,3024.00,599.86,595.16,52.74,0000 0000 0000 0000 000000
2016-05-17 11:49:50,0.00,1.72,0.00,23.35,28.02,31.00,14.51,49.30,1016.62,2032.01,2822.00,2691.97,3024.00,600.06,595.40,52.79,0000 0000 0000 0000 000000
2016-05-17 11:54:51,0.00,1.72,0.00,23.33,28.00,30.95,14.62,49.51,1016.62,2032.03,2821.99,2691.91,3023.95,600.11,595.52,52.84,0000 0000 0000 0000 000000
2016-05-17 11:59:53,0.01,1.73,0.00,23.32,28.00,30.95,14.45,49.11,1016.62,2032.09,2821.93,2691.81,3023.95,599.91,595.26,52.89,0000 0000 0000 0000 000000
2016-05-17 12:04:54,0.04,1.73,0.00,23.30,27.97,30.96,14.54,49.17,1016.63,2032.08,2821.31,2691.26,3023.61,600.31,595.73,52.94,0000 0000 0000 0000 000000
2016-05-17 12:09:55,0.04,1.73,0.00,23.27,27.96,30.93,14.55,49.25,1016.63,2032.22,2821.03,2691.11,3023.32,600.11,595.60,52.99,0000 0000 0000 0000 000000
2016-05-17 12:14:57,0.01,1.73,0.00,23.27,27.95,30.91,14.61,49.27,1016.75,2032.46,2821.01,2691.04,3023.09,600.30,595.74,53.04,0000 0000 0000 0000 000000
2016-05-17 12:19:58,0.04,1.73,0.00,23.26,27.94,30.89,14.59,49.14,1017.01,2032.77,2821.00,2691.02,3023.01,600.20,595.95,53.09,0000 0000 0000 0000 000000
2016-05-17 12:25:00,0.01,1.73,0.00,23.24,27.92,30.89,14.56,49.33,1017.05,2032.83,2820.98,2691.01,3023.00,600.05,595.88,53.14,0000 0000 0000 0000 000000
2016-05-17 12:30:01,0.01,1.73,0.00,23.23,27.91,30.88,14.61,49.29,1017.07,2032.94,2820.83,2691.00,3023.00,600.10,595.95,53.19,0000 0000 0000 0000 000000
2016-05-17 12:35:02,0.01,1.73,0.00,23.22,27.90,30.86,14.58,49.18,1017.09,2032.96,2820.35,2691.00,3023.00,600.00,595.94,53.25,0000 0000 0000 0000 000000
2016-05-17 12:40:03,0.00,1.73,0.00,23.20,27.89,30.87,14.56,49.21,1017.10,2032.98,2820.02,2691.00,3022.99,600.07,596.00,53.30,0000 0000 0000 0000 000000
2016-05-17 12:45:04,0.00,1.73,0.00,23.19,27.87,30.84,14.50,49.09,1017.10,2032.99,2820.00,2691.00,3022.99,599.89,595.92,53.35,0000 0000 0000 0000 000000
2016-05-17 12:50:05,0.00,1.73,0.00,23.17,27.87,30.82,14.62,49.17,1017.10,2032.99,2819.99,2690.98,3022.78,600.15,596.18,53.40,0000 0000 0000 0000 000000
2016-05-17 12:55:07,0.02,1.73,0.00,23.16,27.85,30.82,14.59,49.72,1017.09,2032.99,2819.83,2690.90,3022.33,599.90,595.80,53.45,0000 0000 0000 0000 000000